www.pogodaiklimat.ru

Погода и климат >> Архив погоды >> Украина >> Белополе


ПОГОДА в Белополе

  • Прогноз погоды в Белополе
  • Монитор погоды в Белополе
  • Климат города

АРХИВ ПОГОДЫ в Белополе

Время (UTC), дата Ветер
(напр.,м/с)
 
Видим.   Явления Облачность Т
(С)
Тd
(С)
f
(%)
Тe
(С)
Тes
(С)
Комфортность P
(гПа)
Po
(гПа)
Тmin
(С)
Tmax
(С)
R
(мм)
R24
(мм)
S
(см)
00 17.06 С 2 10 км 10/0
[Ac As]
+16.9 +14.7 87 +17 +17 1014.2 1014.0
03 17.06 С 1 4000 м 10 баллов +16.2 +14.6 90 +17 +17 1013.0 1003.3
06 17.06 С 2 11 км в посл. час ливневой дождь 10/6 600 м
[Cb cap Ac und]
+16.7 +15.5 93 +17 +18 1013.2 1013.0 +16.0 0.8
09 17.06 В 2 4000 м 10 баллов +22.2 +18.0 77 +27 +27 душно 1013.0 983.3
12 17.06 СВ 2 4000 м 8/0
[Ac trans]
+25.0 +18.7 68 +30 +38 душно 1012.2 1012.0
15 17.06 СВ 2 4000 м 10 баллов +25.3 +18.5 66 +30 +30 душно 1012.0 982.7
18 17.06 З 2 4000 м гроза без осадков 10/10 600 м
[Cb cap]
+22.8 +18.2 75 +28 +28 душно 1013.4 1013.0 +25.9
21 17.06 штиль 0 10 км ясно +18.9 +16.9 88 +20 +20 1014.0 1003.5
00 18.06 штиль 0 10 км {гроза} 9/0
[Ac trans Ci fib]
+18.3 +16.5 89 +19 +19 1013.8 1014.0
03 18.06 штиль 0 4000 м 10 баллов +18.9 +17.2 90 +20 +20 1014.0 984.0
06 18.06 штиль 0 4000 м 8/3 1000 м
[Cu hum Ci fib]
+23.8 +19.1 75 +29 +35 душно 1013.7 1014.0 +18.2
09 18.06 СВ 1 4000 м 10 баллов +27.5 +16.8 52 +31 +31 душно 1014.0 1004.6
12 18.06 В 3 4000 м 9/8 600 м
[Cu med, cong Ci fib]
+29.0 +19.0 55 +34 +37 очень
душно
1013.5 1014.0
15 18.06 штиль 0 4000 м гроза, ливневой дождь 10 баллов +22.3 +19.1 82 +28 +28 душно 1014.0 984.3
18 18.06 С 1 4000 м {гроза, ливн. осадки} 8/4 600 м
[Sc Ac trans]
+20.9 +16.8 77 +26 +26 душно 1015.3 1015.0 +29.4 3
21 18.06 штиль 0 10 км ясно +18.7 +16.8 89 +20 +20 1017.0 986.9
00 19.06 штиль 0 10 км 8/0
[Ac trans]
+17.7 +16.2 91 +18 +18 1016.7 1017.0
03 19.06 СЗ 1 8000 м дымка 10 баллов +18.5 +17.5 94 +20 +20 1017.0 1007.1
06 19.06 З 1 4000 м 3/0
[Ac trans]
+21.7 +18.7 83 +27 +34 душно 1017.3 1017.0 +17.6
09 19.06 СЗ 2 4000 м 10 баллов +26.4 +18.5 62 +31 +31 душно 1017.0 987.6
12 19.06 З 1 4000 м 6/6 1000 м
[Cu med, cong]
+28.9 +17.7 51 +33 +40 очень
душно
1016.2 1016.0
15 19.06 З 1 4000 м 3 балла +29.3 +18.1 51 +34 +38 очень
душно
1016.0 987.0
18 19.06 З 1 4000 м 3/0
[Ci fib]
+24.8 +18.5 68 +29 +29 душно 1016.2 1016.0 +29.3
21 19.06 штиль 0 10 км ясно +21.0 +17.6 81 +25 +25 комфорт 1017.0 987.1
00 20.06 З 1 10 км 4/0
[Ci fib]
+19.4 +17.3 88 +23 +23 комфорт 1018.0 1018.0
03 20.06 З 1 10 км 6 баллов +18.9 +15.9 83 +21 +21 комфорт 1019.0 988.8
06 20.06 С 1 4000 м 5/0
[Ac trans Ci fib]
+23.0 +15.3 62 +27 +34 душно 1019.8 1020.0 +18.8
09 20.06 З 2 4000 м 3 балла +26.9 +14.3 46 +29 +41 жарко 1019.0 989.6
12 20.06 СЗ 3 4000 м 8/0
[Ac trans]
+26.3 +13.8 46 +28 +35 жарко 1019.1 1019.0
15 20.06 СЗ 2 4000 м 3 балла +26.8 +15.2 49 +30 +33 душно 1018.0 988.6
18 20.06 СЗ 1 4000 м 3/0
[Ci fib]
+23.5 +15.9 62 +27 +27 душно 1017.8 1018.0 +27.5
21 20.06 З 1 10 км ясно +18.8 +15.1 79 +21 +21 комфорт 1019.0 988.8
00 21.06 З 1 10 км ясно +16.4 +14.3 87 +17 +17 1019.2 1019.0
03 21.06 З 1 8000 м дымка ясно +15.5 +14.4 93 +16 +17 1019.0 988.4
06 21.06 З 1 4000 м ясно +22.2 +15.8 67 +26 +35 душно 1018.1 1018.0 +15.1
09 21.06 ЮЗ 2 4000 м 10 баллов +25.3 +14.4 51 +28 +28 жарко 1017.0 987.5
12 21.06 ЮЗ 2 4000 м 8/5 1000 м
[Cu med, cong Ci fib]
+28.2 +15.5 46 +31 +38 душно 1014.3 1014.0
15 21.06 ЮЗ 2 4000 м 10 баллов +27.4 +15.4 48 +30 +30 жарко 1013.0 983.8
18 21.06 ЮЗ 1 4000 м 8/0
[Ci fib]
+24.0 +17.6 67 +28 +28 душно 1011.7 1012.0 +28.2
21 21.06 Ю 1 10 км ясно +20.1 +16.9 82 +24 +24 комфорт 1011.0 981.2
00 22.06 штиль 0 10 км ясно +18.7 +16.5 87 +20 +20 1010.0 1010.0
03 22.06 штиль 0 10 км 10 баллов +18.9 +15.9 83 +20 +20 1009.0 979.1
06 22.06 ЮЗ 3 20 км 9/0
[Ac trans Ci fib]
+23.8 +15.9 61 +27 +30 жарко 1008.5 1009.0 +18.4
09 22.06 СЗ 3 4000 м 10 баллов +26.4 +19.5 66 +32 +32 очень
душно
1009.0 979.9
12 22.06 СЗ 4 4000 м 10/0
[Ac As]
+19.5 +14.5 73 +21 +24 комфорт 1010.4 1010.0
15 22.06 СЗ 3 4000 м 10 баллов +17.1 +11.8 71 +17 +17 1012.0 981.8
18 22.06 СВ 1 4000 м 9/8 600 м
[Sc Ac trans]
+17.3 +13.0 76 +18 +18 1012.4 1012.0 +26.6
21 22.06 СВ 2 10 км 10 баллов +15.0 +11.4 79 +15 +15 1012.0 1023.0
00 23.06 СВ 1 4000 м слабый ливневой дождь 10/10 600 м
[Cb cap]
+12.8 +12.2 96 +13 +13 1013.0 1013.0
03 23.06 ЮЗ 2 10 км ливневой дождь 10 баллов +11.5 +10.2 92 +10 +10 1011.0 980.2
06 23.06 З 2 11 км в посл. час ливневой дождь 10/10 300 м
[Cb cap]
+11.9 +11.0 94 +11.4 11
09 23.06 З 3 10 км ливневой дождь 10 баллов +11.8 +9.2 84 +10 +10 1011.0 980.2
12 23.06 СЗ 3 10 км слабый ливневой дождь 10/10 50 м
[Cb cap]
+11.6 +9.8 89 +10 +10 1011.4 1011.0
15 23.06 СЗ 3 4000 м 10 баллов +11.4 +9.7 89 +10 +10 1012.0 981.2
18 23.06 З 2 10 км ливневой дождь 10 баллов +11.2 +10.6 96 +10 +10 1013.0 982.1 +12.0 5
21 23.06 З 2 4000 м дымка 10 баллов +9.2 +8.4 95 +7 +7 1013.0 981.9

 

Местоположение метеостанции Белополе (Винницкая область, Украина): широта 49.83 долгота 28.88 высота над уровнем моря 258 м.

В архиве по умолчанию представлена погода в Белополе за последнюю неделю. Архивные данные за месяц целиком и за предыдущие месяцы, начиная с января 2011 года, Вы можете получить, выбрав интересующий диапазон дат из раскрывающегося списка и нажав кнопку "Ввод!".


*Определитесь, кто Вы:
робот инопланетянин человек

Внимание! Время в таблицах - всемирное. Для получения местного времени необходимо прибавить поправку, которая в Белополе равна 2 ч.

Смотрите также архив погоды в соседних городах и на ближайших метеорологических станциях:

Погода в Житомире (Житомирская область, Украина) (46 км)
Погода в Виннице (Винницкая область, Украина) (70 км)
Погода в Фастове (Киевская область, Украина) (79 км)
Погода в Белой Церкви (Киевская область, Украина) (89 км)
Погода в Жмеринке (Винницкая область, Украина) (103 км)
Погода в Тетереве (Киевская область, Украина) (109 км)
Погода в Жашкове (Черкасская область, Украина) (109 км)
Погода в Хмельнике (Винницкая область, Украина) (110 км)
Погода в Гайсине (Винницкая область, Украина) (121 км)
Погода в Новограде-Волынском (Житомирская область, Украина) (123 км)

Пояснения к столбцам:

Ветер - указаны скорость ветра в м/с - средняя за 10 мин, порывы в срок и между сроками (в фигурных скобках) и направление, откуда дует ветер: С - северный, СВ - северо-восточный, В - восточный, ЮВ - юго-восточный, Ю - южный, ЮЗ - юго-западный, З - западный, СЗ - северо-западный.
Видимость - горизонтальная дальность видимости в метрах или километрах. При видимости от 1 до 10 км при отсутствии осадков обычно наблюдается дымка, при ухудшении видимости до 1 км и менее - туман. В сухую погоду видимость может ухудшаться дымом, пылью или мглою.
Явления - указаны атмосферные явления, наблюдавшиеся в срок или в последний час перед сроком; фигурными скобками обозначены явления, наблюдавшиеся между сроками (за 1-3 часа до срока); квадратными скобками обозначены град или гололедные отложения с указанием их диаметра в мм.
Облачность - указаны через наклонную черту общая и нижняя облачность в баллах и высота нижней границы облаков в метрах; квадратными скобками обозначены формы облаков: Ci - перистые, Cs - перисто-слоистые, Cc - перисто-кучевые, Ac - высококучевые, As - высокослоистые, Sc - слоисто-кучевые, Ns - слоисто-дождевые, Cu - кучевые, Cb - кучево-дождевые. Подробнее классификацию облаков см. в Атласе облаков (PDF).
T - Температура воздуха - температура, измеренная на высоте 2 м над землей.
Td - Температура точки росы - температура, при понижении до которой содержащийся в воздухе водяной пар достигнет насыщения.
f - Относительная влажность воздуха - влажноcть воздуха, измеренная на высоте 2 м над землей.
Te - Эффективная температура - температура, которую ощущает одетый по сезону человек в тени. Характеристика душности погоды. При расчете учитывается влияние влажности воздуха и скорости ветра на теплоощущения человека.
Tes - Эффективная температура на солнце - температура, которую ощущает человек, с поправкой на солнечный нагрев. Характеристика знойности погоды. Зависит от высоты солнца над горизонтом, облачности и скорости ветра. Ночью, в пасмурную погоду, а также при ветре 12 м/с и более поправка равна нулю.
P - Атмосферное давление - приведенное к уровню моря атмосферное давление.
Po - Атмосферное давление - измеренное на уровне метеостанции атмосферное давление.
Tmin - Минимальная температура - минимум температуры воздуха на высоте 2 м над землей.
Tmax - Максимальная температура - максимум температуры воздуха на высоте 2 м над землей.
R - Количество осадков - Количество выпавших осадков за период времени, мм. При наведении курсора мыши на число - период времени, за который выпало указанное количество осадков.
R24 - Количество осадков - Количество выпавших осадков за 24 часа, мм.
S - Снежный покров - Высота снежного покрова, см. При наведении курсора мыши на число - состояние снежного покрова и степень покрытия местности в баллах.